Location: Namasale
(1.5000°N, 32.6167°E)
Time: 09:29:26
(UTC+00:00)

Courier 1B - Pass Details

Date: 21 April 2021
Orbit: 962 x 1209 km, 28.3° (Epoch: 15 May)

Event Time Altitude Azimuth Distance (km) Brightness Sun altitude
Rises 05:04:49 0° 229° (SW) 4,057 10.2 19.0°
Reaches altitude 10° 05:07:49 10° 224° (SW) 3,067 9.7 19.8°
Maximum altitude 05:15:05 49° 151° (SSE) 1,412 8.8 21.5°
Drops below altitude 10° 05:21:55 10° 78° (ENE) 2,890 12.1 23.2°
Sets 05:24:40 0° 72° (ENE) 3,806 12.0 23.9°
